#timestamp,LO_Frequency,Hit,StdDev 
1551924015.2,286046993.8,N
1551924035.1,286046996.0,N
1551924036.0,286046996.0,N
1551924055.8,286046998.0,N
1551924075.6,286046997.3,N
1551924095.5,286046997.5,N
1551924115.3,286046997.0,N
1551924135.1,286046996.6,N
1551924155.9,286046997.1,N
1551924175.7,286046996.6,N
1551924195.6,286046996.7,N
1551924215.4,286046999.0,N
1551924235.2,286046996.5,N
1551924255.1,286046996.6,N
1551924256.0,286046996.6,N
1551924275.8,286046998.0,N
1551924295.6,286046995.6,Y
1551924315.5,286046999.4,P
1551924335.3,286046999.4,N
1551924355.2,286047000.3,N
1551924375.9,286047004.0,N
1551924395.7,286047004.1,N
1551924415.6,286047004.0,N
1551924435.4,286047003.2,N
1551924455.2,286047001.8,N
1551924475.1,286047000.4,N
1551924476.0,286047000.4,N
1551924495.8,286047000.3,N
1551924515.7,286047001.1,N
1551924535.5,286046998.7,N
1551924555.3,286046999.4,N
1551924575.2,286047001.2,N
1551924595.0,286047000.7,N
1551924595.9,286047000.7,N
1551924615.8,286047000.0,N
1551924635.6,286047001.2,N
1551924655.4,286046998.1,N
1551924675.3,286046999.9,N
1551924695.1,286047001.2,N
1551924715.9,286047000.2,N
1551924735.7,286047002.4,N
1551924755.5,286047002.3,N
1551924775.4,286047000.3,N
1551924795.2,286046998.7,N
1551924815.1,286047000.9,N
1551924816.0,286047000.9,N
1551924835.8,286047000.4,N
1551924855.6,286046999.9,N
1551924875.5,286047000.1,N
1551924895.3,286047002.8,N
1551924915.2,286047000.6,N
1551924935.9,286047002.1,N
1551924955.7,286047003.2,N
1551924975.6,286047005.6,Y
1551924995.4,286047001.6,P
1551925015.2,286046999.7,N
1551925035.1,286047000.7,N
1551925036.0,286047000.7,N
1551925055.8,286046996.5,Y
1551925075.7,286046997.4,P
1551925095.5,286046998.5,N
1551925115.3,286046998.2,N
1551925135.2,286046998.9,N
1551925155.0,286046996.9,N
1551925155.9,286046996.9,N
1551925175.8,286046999.4,N
1551925195.6,286046999.6,N
1551925215.4,286046999.4,N
1551925235.3,286046996.9,N
1551925255.1,286046999.0,N
1551925275.8,286047001.0,N
1551925295.7,286047000.1,N
1551925315.5,286046999.8,N
1551925335.4,286047000.0,N
1551925355.2,286047000.1,N
1551925375.0,286047000.6,N
1551925375.9,286047000.6,N
1551925395.8,286046998.7,N
1551925415.6,286046998.3,N
1551925435.5,286046999.2,N
1551925455.3,286046996.8,N
1551925475.1,286046996.6,N
1551925495.9,286046999.2,N
1551925515.7,286046999.4,N
1551925535.5,286046998.9,N
1551925555.4,286047000.6,N
1551925575.2,286046999.4,N
1551925595.1,286046999.0,N
1551925596.0,286046999.0,N
1551925615.8,286046999.6,N
1551925635.6,286046998.9,N
1551925655.5,286047001.1,N
1551925675.3,286046998.6,N
1551925695.2,286046998.7,N
1551925715.9,286046999.4,N
1551925735.7,286046999.4,N
1551925755.6,286046998.4,N
1551925775.4,286046998.9,N
1551925795.3,286046999.6,N
1551925815.1,286047000.8,N
1551925816.0,286047000.8,N
1551925835.8,286046999.4,N
1551925855.7,286046998.8,N
1551925875.5,286046999.1,N
1551925895.3,286046998.6,N
1551925915.2,286047002.2,N
1551925935.0,286047001.7,N
1551925935.9,286047001.7,N
1551925955.8,286047005.3,Y
1551925975.6,286047007.3,P
1551925995.4,286047007.5,N
1551926015.3,286047007.6,N
1551926035.1,286047004.6,N
1551926055.8,286047004.9,N
1551926075.7,286047005.4,N
1551926095.5,286047005.2,N
1551926115.4,286047004.6,N
1551926135.2,286047007.2,Y
1551926155.0,286046999.7,P
1551926155.9,286046999.7,N
1551926175.8,286047000.0,N
1551926195.6,286047002.6,N
1551926215.5,286047003.6,N
1551926235.3,286047004.3,N
1551926255.1,286047001.8,N
1551926275.9,286046999.8,N
1551926295.7,286047001.3,N
1551926315.5,286047002.5,N
1551926335.4,286046999.9,N
1551926355.2,286047001.0,N
1551926375.0,286047001.1,N
1551926376.0,286047001.1,N
1551926395.8,286047001.0,N
1551926415.6,286047000.5,N
1551926435.5,286047002.4,N
1551926455.3,286046999.7,N
1551926475.1,286047001.5,N
1551926495.9,286047002.2,N
1551926515.7,286047000.7,N
1551926535.6,286047000.9,N
1551926555.4,286047000.1,N
1551926575.2,286047000.0,N
1551926595.1,286047000.7,N
1551926596.0,286047000.7,N
1551926615.8,286046999.9,N
1551926635.6,286047002.5,N
1551926655.5,286047003.2,N
1551926675.3,286047006.3,Y
1551926695.2,286047007.6,P
1551926715.9,286047007.5,N
1551926735.7,286047005.1,N
1551926755.6,286047003.5,N
1551926775.4,286047001.7,N
1551926795.2,286047003.8,N
1551926815.1,286047006.0,N
1551926816.0,286047006.0,N
1551926835.8,286047002.9,N
1551926855.7,286047001.5,N
1551926875.5,286047002.4,N
1551926895.3,286047002.3,N
1551926915.2,286047001.5,N
1551926935.0,286047001.7,N
1551926935.9,286047001.7,N
1551926955.8,286047001.5,N
1551926975.6,286047001.3,N
1551926995.4,286047003.6,N
1551927015.3,286047001.3,N
1551927035.1,286047003.0,N
1551927055.8,286047003.7,N
1551927075.7,286047003.2,N
1551927095.5,286047003.5,N
1551927115.4,286047004.2,N
1551927135.2,286047003.1,N
1551927155.0,286047004.7,N
1551927155.9,286047004.7,N
1551927175.8,286047007.4,Y
1551927195.6,286047005.8,P
1551927215.5,286047005.4,P
1551927235.3,286047003.5,P
1551927255.1,286047002.1,N
1551927275.9,286047001.9,N
1551927295.7,286047000.7,N
1551927315.5,286046999.0,N
1551927335.4,286046999.5,N
1551927355.2,286046999.2,N
1551927375.0,286046996.6,N
1551927376.0,286046996.6,N
1551927395.8,286046996.9,N
1551927415.6,286046996.8,N
1551927435.5,286046997.9,N
1551927455.3,286046995.4,N
1551927475.1,286046998.0,N
1551927495.9,286046995.7,N
1551927515.7,286046995.0,N
1551927535.6,286046995.1,N
1551927555.4,286046995.4,N
1551927575.2,286046998.7,N
1551927595.1,286046997.7,N
1551927596.0,286046997.7,N
